• In Austria
  • List of Countries
  • For 7 days
  • Water Temperature
  • Satellite Maps
  • Weather Map
  • News
  • Weather Widgets
  • user-avatar
    Login

    Hourly Weather Kavarna

    Today, 16 December, Saturday

    Time Temperature Precipitation Wind Pressure Humidity
    00:00 +11°C° 0 mm 9 mps 755 mmHg 81%
    01:00 +11°C° 0 mm 9 mps 755 mmHg 82%
    02:00 +11°C° 0 mm 10 mps 755 mmHg 84%
    03:00 +11°C° 0 mm 10 mps 755 mmHg 85%
    04:00 +11°C° 0 mm 10 mps 754 mmHg 86%
    05:00 +11°C° 0 mm 10 mps 754 mmHg 86%
    06:00 +11°C° 0 mm 10 mps 754 mmHg 85%
    07:00 +11°C° 0 mm 10 mps 754 mmHg 84%
    08:00 +11°C° 0 mm 10 mps 754 mmHg 83%
    09:00 +12°C° 0 mm 11 mps 754 mmHg 77%
    10:00 +13°C° 0 mm 11 mps 754 mmHg 71%
    11:00 +14°C° 0 mm 11 mps 754 mmHg 65%
    12:00 +16°C° 0 mm 11 mps 754 mmHg 62%
    13:00 +16°C° 0 mm 10 mps 754 mmHg 59%
    14:00 +17°C° 0 mm 10 mps 754 mmHg 56%
    15:00 +16°C° 0 mm 9 mps 754 mmHg 59%
    16:00 +15°C° 0 mm 8 mps 754 mmHg 62%
    17:00 +15°C° 0 mm 7 mps 754 mmHg 64%
    18:00 +14°C° 0 mm 6 mps 755 mmHg 67%
    19:00 +13°C° 0 mm 6 mps 755 mmHg 71%
    20:00 +13°C° 0 mm 6 mps 755 mmHg 74%
    21:00 +13°C° 0.2 mm 6 mps 756 mmHg 78%
    22:00 +13°C° 0.2 mm 6 mps 756 mmHg 81%
    23:00 +13°C° 0.2 mm 6 mps 756 mmHg 85%

    Tomorrow, 17 December, Sunday

    Time Temperature Precipitation Wind Pressure Humidity
    00:00 +11°C° 1.2 mm 6 mps 756 mmHg 88%
    01:00 +12°C° 1.2 mm 5 mps 756 mmHg 92%
    02:00 +12°C° 1.2 mm 5 mps 755 mmHg 95%
    03:00 +11°C° 2 mm 6 mps 755 mmHg 94%
    04:00 +10°C° 2 mm 7 mps 755 mmHg 93%
    05:00 +10°C° 2 mm 8 mps 754 mmHg 92%
    06:00 +9°C° 0.7 mm 8 mps 755 mmHg 90%
    07:00 +7°C° 0.7 mm 8 mps 755 mmHg 88%
    08:00 +6°C° 0.7 mm 8 mps 756 mmHg 86%
    09:00 +6°C° 0.3 mm 8 mps 756 mmHg 83%
    10:00 +6°C° 0.3 mm 8 mps 756 mmHg 79%
    11:00 +6°C° 0.3 mm 7 mps 757 mmHg 75%
    12:00 +6°C° 0.6 mm 7 mps 757 mmHg 74%
    13:00 +6°C° 0.6 mm 7 mps 757 mmHg 74%
    14:00 +6°C° 0.6 mm 7 mps 757 mmHg 73%
    15:00 +5°C° 0.6 mm 7 mps 757 mmHg 74%
    16:00 +5°C° 0.6 mm 7 mps 757 mmHg 76%
    17:00 +5°C° 0.6 mm 7 mps 757 mmHg 77%
    18:00 +5°C° 0.3 mm 7 mps 758 mmHg 78%
    19:00 +4°C° 0.3 mm 7 mps 758 mmHg 78%
    20:00 +4°C° 0.3 mm 7 mps 759 mmHg 78%
    21:00 +4°C° 0.1 mm 7 mps 760 mmHg 78%
    22:00 +3°C° 0.1 mm 7 mps 760 mmHg 78%
    23:00 +3°C° 0.1 mm 7 mps 761 mmHg 79%

    Day after tomorrow, 18 December, Monday

    Time Temperature Precipitation Wind Pressure Humidity
    00:00 +3°C° 0 mm 7 mps 761 mmHg 78%
    01:00 +2°C° 0 mm 7 mps 762 mmHg 77%
    02:00 +2°C° 0 mm 7 mps 762 mmHg 76%
    03:00 +2°C° 0 mm 6 mps 763 mmHg 77%
    04:00 +1°C° 0 mm 6 mps 763 mmHg 77%
    05:00 +1°C° 0 mm 6 mps 763 mmHg 78%
    06:00 +1°C° 0 mm 5 mps 763 mmHg 78%
    07:00 0°C° 0 mm 5 mps 764 mmHg 79%
    08:00 0°C° 0 mm 5 mps 764 mmHg 79%
    09:00 +1°C° 0 mm 4 mps 765 mmHg 75%
    10:00 +3°C° 0 mm 4 mps 765 mmHg 71%
    11:00 +3°C° 0 mm 4 mps 765 mmHg 66%
    12:00 +4°C° 0 mm 4 mps 765 mmHg 63%
    13:00 +4°C° 0 mm 4 mps 764 mmHg 61%
    14:00 +5°C° 0 mm 4 mps 764 mmHg 58%
    15:00 +4°C° 0 mm 4 mps 764 mmHg 61%
    16:00 +4°C° 0 mm 4 mps 764 mmHg 64%
    17:00 +3°C° 0 mm 4 mps 764 mmHg 67%
    18:00 +3°C° 0 mm 4 mps 764 mmHg 68%
    19:00 +3°C° 0 mm 4 mps 765 mmHg 69%
    20:00 +3°C° 0 mm 4 mps 765 mmHg 69%
    21:00 +3°C° 0.1 mm 4 mps 765 mmHg 71%
    22:00 +2°C° 0.1 mm 5 mps 765 mmHg 72%
    23:00 +2°C° 0.1 mm 5 mps 766 mmHg 73%

    19 December, Tuesday

    Time Temperature Precipitation Wind Pressure Humidity
    00:00 +1°C° 0.2 mm 5 mps 766 mmHg 75%
    01:00 +1°C° 0.2 mm 6 mps 766 mmHg 76%
    02:00 +1°C° 0.2 mm 6 mps 766 mmHg 78%
    03:00 +1°C° 0.2 mm 6 mps 766 mmHg 79%
    04:00 -1°C° 0.2 mm 6 mps 767 mmHg 79%
    05:00 -1°C° 0.2 mm 6 mps 767 mmHg 80%
    06:00 -1°C° 0.2 mm 7 mps 767 mmHg 81%
    07:00 -1°C° 0.2 mm 7 mps 768 mmHg 83%
    08:00 -2°C° 0.2 mm 7 mps 768 mmHg 84%
    09:00 -1°C° 0.2 mm 7 mps 769 mmHg 84%
    10:00 -1°C° 0.2 mm 7 mps 769 mmHg 83%
    11:00 -1°C° 0.2 mm 7 mps 770 mmHg 83%
    12:00 -1°C° 0.2 mm 7 mps 770 mmHg 81%
    13:00 -1°C° 0.2 mm 7 mps 770 mmHg 80%
    14:00 -1°C° 0.2 mm 7 mps 770 mmHg 79%
    15:00 -1°C° 0.3 mm 7 mps 770 mmHg 79%
    16:00 -1°C° 0.3 mm 7 mps 770 mmHg 79%
    17:00 -1°C° 0.3 mm 7 mps 770 mmHg 80%
    18:00 -2°C° 0.3 mm 7 mps 771 mmHg 80%
    19:00 -2°C° 0.3 mm 7 mps 771 mmHg 81%
    20:00 -2°C° 0.3 mm 7 mps 771 mmHg 82%
    21:00 -2°C° 0.3 mm 8 mps 771 mmHg 81%
    22:00 -4°C° 0.3 mm 8 mps 771 mmHg 81%
    23:00 -4°C° 0.3 mm 8 mps 771 mmHg 81%

    20 December, Wednesday

    Time Temperature Precipitation Wind Pressure Humidity
    00:00 -4°C° 0.3 mm 8 mps 771 mmHg 81%
    01:00 -4°C° 0.3 mm 8 mps 771 mmHg 80%
    02:00 -4°C° 0.3 mm 8 mps 771 mmHg 80%
    03:00 -4°C° 0.2 mm 8 mps 771 mmHg 79%
    04:00 -4°C° 0.2 mm 8 mps 771 mmHg 79%
    05:00 -4°C° 0.2 mm 8 mps 771 mmHg 78%
    06:00 -5°C° 0.1 mm 8 mps 772 mmHg 78%
    07:00 -5°C° 0.1 mm 8 mps 772 mmHg 78%
    08:00 -5°C° 0.1 mm 8 mps 772 mmHg 78%
    09:00 -4°C° 0 mm 8 mps 772 mmHg 74%
    10:00 -4°C° 0 mm 8 mps 772 mmHg 70%
    11:00 -2°C° 0 mm 8 mps 772 mmHg 66%
    12:00 -2°C° 0 mm 7 mps 772 mmHg 65%
    13:00 -1°C° 0 mm 7 mps 772 mmHg 64%
    14:00 -1°C° 0 mm 7 mps 772 mmHg 63%
    15:00 -2°C° 0 mm 6 mps 772 mmHg 65%
    16:00 -2°C° 0 mm 6 mps 772 mmHg 68%
    17:00 -2°C° 0 mm 5 mps 773 mmHg 71%
    18:00 -2°C° 0 mm 5 mps 773 mmHg 72%
    19:00 -4°C° 0 mm 5 mps 773 mmHg 72%
    20:00 -3°C° 0 mm 4 mps 773 mmHg 73%
    21:00 -4°C° 0 mm 5 mps 773 mmHg 72%
    22:00 -4°C° 0 mm 5 mps 773 mmHg 72%
    23:00 -4°C° 0 mm 5 mps 773 mmHg 71%

    21 December, Thursday

    Time Temperature Precipitation Wind Pressure Humidity
    00:00 -4°C° 0 mm 5 mps 773 mmHg 72%
    01:00 -4°C° 0 mm 5 mps 773 mmHg 72%
    02:00 -4°C° 0 mm 5 mps 773 mmHg 72%
    03:00 -4°C° 0 mm 5 mps 773 mmHg 72%
    04:00 -5°C° 0 mm 5 mps 773 mmHg 72%
    05:00 -5°C° 0 mm 5 mps 772 mmHg 72%
    06:00 -4°C° 0 mm 4 mps 773 mmHg 72%
    07:00 -4°C° 0 mm 4 mps 773 mmHg 72%
    08:00 -4°C° 0 mm 4 mps 773 mmHg 72%
    09:00 -3°C° 0 mm 4 mps 773 mmHg 69%
    10:00 -2°C° 0 mm 4 mps 773 mmHg 66%
    11:00 -1°C° 0 mm 4 mps 773 mmHg 63%
    12:00 -1°C° 0 mm 4 mps 772 mmHg 63%
    13:00 -1°C° 0 mm 4 mps 772 mmHg 63%
    14:00 0°C° 0 mm 4 mps 771 mmHg 63%
    15:00 -1°C° 0 mm 4 mps 771 mmHg 67%
    16:00 -2°C° 0 mm 4 mps 771 mmHg 72%
    17:00 -2°C° 0 mm 4 mps 771 mmHg 76%
    18:00 -3°C° 0 mm 4 mps 771 mmHg 78%
    19:00 -3°C° 0 mm 4 mps 771 mmHg 81%
    20:00 -2°C° 0 mm 3 mps 771 mmHg 83%
    21:00 -2°C° 0 mm 3 mps 771 mmHg 83%
    22:00 -2°C° 0 mm 3 mps 771 mmHg 84%
    23:00 -2°C° 0 mm 3 mps 770 mmHg 84%
    Show more